Change the Weather History Date:

Wednesday, February 15, 2012

  Actual Average (KDTO) Record (KDTO)
Temperature  
Mean Temperature 60 °F -  
Max Temperature 69 °F 58 °F 84 °F (2005)
Min Temperature 51 °F 37 °F 19 °F (2007)
Degree Days  
Heating Degree Days 5    
Growing Degree Days 10 (Base 50)    
Moisture  
Dew Point 41 °F    
Average Humidity 64    
Maximum Humidity 100    
Minimum Humidity 15    
Precipitation  
Precipitation 0.00 in - - ()
Sea Level Pressure  
Sea Level Pressure 29.90 in    
Wind  
Wind Speed 10 mph (SSW)    
Max Wind Speed 20 mph    
Max Gust Speed 29 mph    
Visibility 6 miles    
Events Fog    
Averages and records for this station are not official NWS values.
T = Trace of Precipitation, MM = Missing Value Source: NWS Daily Summary

Daily Weather History Graph

Daily Weather History Graph

Search for Another Location

Airport or City:

Trip Planner

Search our weather history database for the weather conditions in past years. The results will help you decide how hot, cold, wet, or windy it might be!

Date:

Astronomy

Feb. 15, 2012 Rise Set
Actual Time 7:14 AM CST 6:14 PM CST
Civil Twilight 6:49 AM CST 6:40 PM CST
Nautical Twilight 6:20 AM CST 7:09 PM CST
Astronomical Twilight 5:51 AM CST 7:38 PM CST
Moon 1:59 AM CST (2/15) 12:20 PM CST (2/15)
Length of Visible Light 11h 51m
Length of Day
11h 00m
Last Quarter, 38% of the Moon is Illuminated
Feb 15
Last Quarter
Feb 21
New
Feb 29
First Quarter
Mar 8
Full
Mar 14
Last Quarter

Hourly Weather History & Observations

Time (CST) Temp. Windchill Dew Point Humidity Pressure Visibility Wind Dir Wind Speed Gust Speed Precip Events Conditions
12:15 AM 53.6 °F - 51.8 °F 94% 29.87 in 7.0 mi SE 12.7 mph - N/A   Overcast
12:35 AM 53.6 °F - 51.8 °F 94% 29.86 in 7.0 mi SE 10.4 mph - N/A   Overcast
12:55 AM 53.6 °F - 51.8 °F 94% 29.87 in 7.0 mi SE 8.1 mph - N/A   Overcast
1:15 AM 53.6 °F - 51.8 °F 94% 29.87 in 5.0 mi SSE 10.4 mph - N/A   Overcast
1:35 AM 53.6 °F - 51.8 °F 94% 29.88 in 5.0 mi SE 9.2 mph - N/A   Overcast
1:55 AM 53.6 °F - 51.8 °F 94% 29.88 in 5.0 mi SE 8.1 mph - N/A   Overcast
2:15 AM 51.8 °F - 51.8 °F 100% 29.88 in 5.0 mi SE 9.2 mph - N/A   Overcast
2:35 AM 53.6 °F - 51.8 °F 94% 29.87 in 5.0 mi ESE 9.2 mph - N/A   Overcast
2:55 AM 53.6 °F - 51.8 °F 94% 29.88 in 5.0 mi SE 8.1 mph - N/A   Overcast
3:35 AM 53.6 °F - 51.8 °F 94% 29.87 in 5.0 mi SE 9.2 mph - N/A   Overcast
3:55 AM 53.6 °F - 51.8 °F 94% 29.88 in 5.0 mi SE 8.1 mph - N/A   Overcast
4:15 AM 53.6 °F - 51.8 °F 94% 29.89 in 5.0 mi SE 6.9 mph - N/A   Overcast
4:35 AM 53.6 °F - 51.8 °F 94% 29.88 in 4.0 mi ESE 8.1 mph - N/A   Overcast
4:55 AM 53.6 °F - 51.8 °F 94% 29.89 in 4.0 mi SE 6.9 mph - N/A   Overcast
5:15 AM 53.6 °F - 51.8 °F 94% 29.89 in 4.0 mi SE 6.9 mph - N/A   Overcast
5:35 AM 53.6 °F - 51.8 °F 94% 29.89 in 3.0 mi SE 6.9 mph - N/A   Overcast
5:55 AM 53.6 °F - 51.8 °F 94% 29.89 in 2.0 mi SE 6.9 mph - N/A   Overcast
6:15 AM 53.6 °F - 51.8 °F 94% 29.89 in 1.0 mi SE 8.1 mph - N/A   Overcast
6:35 AM 53.6 °F - 51.8 °F 94% 29.89 in 0.5 mi SE 5.8 mph - N/A Fog Fog
6:55 AM 53.6 °F - 51.8 °F 94% 29.90 in 0.2 mi ESE 6.9 mph - N/A Fog Fog
7:15 AM 51.8 °F - 51.8 °F 100% 29.89 in 0.2 mi SE 8.1 mph - N/A Fog Fog
7:35 AM 53.6 °F - 51.8 °F 94% 29.89 in 0.2 mi SE 6.9 mph - N/A Fog Fog
7:55 AM 51.8 °F - 51.8 °F 100% 29.90 in 0.2 mi SE 6.9 mph - N/A Fog Fog
8:15 AM 53.6 °F - 51.8 °F 94% 29.91 in 0.2 mi SE 6.9 mph - N/A Fog Fog
8:35 AM 53.6 °F - 53.6 °F 100% 29.92 in 0.2 mi SSE 5.8 mph - N/A Fog Fog
8:55 AM 53.6 °F - 53.6 °F 100% 29.93 in 0.2 mi South 6.9 mph - N/A Fog Fog
9:15 AM 55.4 °F - 53.6 °F 94% 29.92 in 0.5 mi South 8.1 mph - N/A Fog Fog
9:35 AM 55.4 °F - 55.4 °F 100% 29.92 in 0.5 mi South 10.4 mph - N/A Fog Fog
9:55 AM 55.4 °F - 55.4 °F 100% 29.92 in 0.2 mi South 10.4 mph - N/A Fog Fog
10:15 AM 55.4 °F - 55.4 °F 100% 29.92 in 0.2 mi South 10.4 mph - N/A Fog Fog
10:35 AM 55.4 °F - 55.4 °F 100% 29.92 in 1.5 mi South 6.9 mph - N/A   Overcast
10:55 AM 59.0 °F - 59.0 °F 100% 29.92 in 4.0 mi SSW 9.2 mph - N/A   Mostly Cloudy
11:15 AM 64.4 °F - 55.4 °F 73% 29.92 in 10.0 mi WSW 11.5 mph - N/A   Scattered Clouds
11:35 AM 64.4 °F - 48.2 °F 56% 29.92 in 10.0 mi WSW 12.7 mph 18.4 mph N/A   Clear
11:55 AM 68.0 °F - 46.4 °F 46% 29.91 in 10.0 mi West 12.7 mph 20.7 mph N/A   Clear
12:15 PM 68.0 °F - 32.0 °F 26% 29.90 in 10.0 mi West 15.0 mph 25.3 mph N/A   Clear
12:35 PM 69.8 °F - 32.0 °F 25% 29.90 in 10.0 mi West 18.4 mph 25.3 mph N/A   Clear
1:15 PM 69.8 °F - 30.2 °F 23% 29.87 in 10.0 mi West 15.0 mph 24.2 mph N/A   Clear
1:35 PM 69.8 °F - 30.2 °F 23% 29.87 in 10.0 mi WSW 16.1 mph 24.2 mph N/A   Clear
1:55 PM 69.8 °F - 30.2 °F 23% 29.85 in 10.0 mi West 13.8 mph 24.2 mph N/A   Clear
2:55 PM 69.8 °F - 26.6 °F 20% 29.86 in 10.0 mi West 19.6 mph 27.6 mph N/A   Clear
3:15 PM 69.8 °F - 28.4 °F 21% 29.86 in 10.0 mi West 16.1 mph 26.5 mph N/A   Clear
3:35 PM 69.8 °F - 26.6 °F 20% 29.87 in 10.0 mi West 19.6 mph 27.6 mph N/A   Clear
3:55 PM 69.8 °F - 21.2 °F 16% 29.87 in 10.0 mi West 17.3 mph 28.8 mph N/A   Clear
4:15 PM 69.8 °F - 19.4 °F 15% 29.88 in 10.0 mi West 18.4 mph 27.6 mph N/A   Clear
4:35 PM 69.8 °F - 21.2 °F 16% 29.89 in 10.0 mi West 16.1 mph 25.3 mph N/A   Clear
4:55 PM 68.0 °F - 19.4 °F 16% 29.90 in 10.0 mi West 17.3 mph 23.0 mph N/A   Clear
5:15 PM 68.0 °F - 17.6 °F 15% 29.90 in 10.0 mi West 18.4 mph 26.5 mph N/A   Clear
5:35 PM 68.0 °F - 19.4 °F 16% 29.91 in 10.0 mi West 11.5 mph - N/A   Clear
5:55 PM 64.4 °F - 21.2 °F 19% 29.92 in 10.0 mi West 10.4 mph 16.1 mph N/A   Clear
6:15 PM 62.6 °F - 23.0 °F 22% 29.93 in 10.0 mi West 8.1 mph - N/A   Clear
6:35 PM 60.8 °F - 23.0 °F 23% 29.93 in 10.0 mi West 8.1 mph - N/A   Clear
6:55 PM 60.8 °F - 23.0 °F 23% 29.94 in 10.0 mi West 5.8 mph - N/A   Clear
7:15 PM 59.0 °F - 23.0 °F 25% 29.96 in 10.0 mi West 5.8 mph - N/A   Clear
7:35 PM 59.0 °F - 23.0 °F 25% 29.96 in 10.0 mi West 5.8 mph - N/A   Clear
7:55 PM 59.0 °F - 23.0 °F 25% 29.97 in 10.0 mi West 6.9 mph - N/A   Clear
8:15 PM 59.0 °F - 23.0 °F 25% 29.97 in 10.0 mi WSW 5.8 mph - N/A   Clear
8:35 PM 59.0 °F - 21.2 °F 23% 29.98 in 10.0 mi WSW 6.9 mph - N/A   Clear
8:55 PM 59.0 °F - 23.0 °F 25% 29.98 in 10.0 mi WSW 8.1 mph - N/A   Clear
9:15 PM 57.2 °F - 24.8 °F 29% 30.00 in 10.0 mi WNW 9.2 mph - N/A   Clear
9:35 PM 55.4 °F - 28.4 °F 36% 30.02 in 10.0 mi NW 11.5 mph - N/A   Clear
9:55 PM 53.6 °F - 32.0 °F 44% 30.04 in 10.0 mi NW 11.5 mph 19.6 mph N/A   Clear
10:15 PM 53.6 °F - 33.8 °F 47% 30.05 in 10.0 mi NW 12.7 mph 16.1 mph N/A   Clear
10:35 PM 51.8 °F - 35.6 °F 54% 30.06 in 10.0 mi NW 9.2 mph 16.1 mph N/A   Clear
10:55 PM 50.0 °F - 35.6 °F 58% 30.07 in 10.0 mi NW 10.4 mph 16.1 mph N/A   Clear
11:15 PM 48.2 °F - 35.6 °F 62% 30.08 in 10.0 mi NW 10.4 mph 18.4 mph N/A   Clear
11:35 PM 46.4 °F 42.4 °F 35.6 °F 66% 30.09 in 10.0 mi NW 8.1 mph 19.6 mph N/A   Clear
11:55 PM 46.4 °F 42.9 °F 35.6 °F 66% 30.09 in 10.0 mi NW 6.9 mph - N/A   Clear